Location: Quebec
(46.8000°N, 71.2500°W)
Time: 19:41:31
(UTC-05:00)

Envisat - Pass Details

Date: 12 October 2017
Orbit: 764 x 766 km, 98.2° (Epoch: 16 December)

Event Time Altitude Azimuth Distance (km) Brightness Sun altitude
Exits shadow 21:34:01 24° 263° (W) 1,538 4.9 -35.7°
Maximum altitude 21:34:15 24° 267° (W) 1,535 4.9 -35.8°
Drops below altitude 10° 21:38:23 10° 322° (NW) 2,314 6.2 -36.4°
Sets 21:41:08 0° 336° (NNW) 3,246 7.0 -36.8°
